Airfield :
LOGIN :

Register | Disclaimer

   EN    FR    IT 

 










Legend :    VFR   Marginal VFR   IFR   Intensive IFR   Very Intensive IFR
Visi :
Ceiling :
>= 8 km
>= 3000ft
5 to 8 km
1000 to 3000 ft
1500m to 5 km
500 to 1000 ft
800 to 1500m
200 to 500 ft
< 800m
< 200 ft
Symbols :   Thunderstorms  Fog  Heavy snow  Heavy precipitations  Wind > 20 kt
SIGMETs :     Misc.  Thunderstorms  Icing  Turbulence  Mountain Waves  Volcanic Ashes






- Airport Elevation : 602 ft
- IATA code : NVS


LFQG - Nevers

CURRENT METAR :
  • 191600Z AUTO 27008KT 240V300 9999 FEW031 OVC054 10/04 Q1027

EXPIRED METARs :
  • 191530Z AUTO 28009KT 9999 SCT030 SCT035 10/04 Q1027
  • 191500Z AUTO 28007KT 250V320 9999 SCT028 BKN072 BKN098 10/04 Q1028
  • 191430Z AUTO 27009KT 9999 BKN028 BKN036 OVC092 10/04 Q1028
  • 191400Z AUTO 28010KT 9999 BKN030 BKN040 BKN100 10/04 Q1028
  • 191330Z AUTO 27009KT 9999 BKN031 BKN037 OVC130 09/03 Q1028

TAF N/A



MET'MAP, your aeronautical weather chart ! - Copyright ORBIFLY December 2007 - Disclaimer

ORBIFLY MET'MAP TEAM :

Programming & Development : Alexandra Zaïnal
Concept & original design : Baudouin d'Aumeries
Assistance for programming : Marc-Olivier Méhu
Technical & hardware support : Manuel Goepfert

Contact : metmap@orbifly.com




SOURCES & CREDITS :

   NOAA